This demonstration page uses our WeatherBlox Daily Observations layout. Learn more.

Hourly Observations for April 3, 2015

Temp ( °F °C ) Dew Point ( °F °C ) Humidity (%) Winds ( mph kmh ) Pressure ( in mb ) Visibility ( mi km ) Precip ( " mm )
12:15 am 00:15 Cloudy with Light Rain 35 1.9 33 0.6 91 91 N 21 33 30.21 1023 4 6.43736 0.06 1.524
12:35 am 00:35 Cloudy with Light Rain 34 1.2 32 0.2 93 93 N 16 26 30.18 1022 7 11.26538 0.09 2.286
12:55 am 00:55 Cloudy with Light Rain 35 1.5 33 0.6 94 94 N 12 19 30.21 1023 10 16.0934 0.09 2.286
1:15 am 01:15 Cloudy with Light Rain 36 2.3 35 1.4 94 94 N 14 22 30.21 1023 10 16.0934 0 0
1:35 am 01:35 Cloudy with Light Rain 37 2.6 35 1.5 93 93 N 15 24 30.21 1023 10 16.0934 0 0
1:55 am 01:55 Cloudy with Light Rain 37 2.8 35 1.5 91 91 N 13 20 30.21 1023 10 16.0934 0.02 0.508
2:15 am 02:15 Cloudy with Light Rain 38 3.1 35 1.5 89 89 N 17 28 30.21 1023 10 16.0934 0 0
2:35 am 02:35 Cloudy with Light Rain 37 2.9 34 1.1 88 88 NNE 14 22 30.21 1023 10 16.0934 0.01 0.254
2:55 am 02:55 Cloudy with Light Rain 37 3 34 1 87 87 NNE 10 17 30.21 1023 10 16.0934 0.01 0.254
3:15 am 03:15 Cloudy with Light Rain 37 2.7 33 0.7 87 87 NNE 8 13 30.21 1023 10 16.0934 0.01 0.254
3:40 am 03:40 Cloudy 37 2.7 34 1 89 89 N 5 7 30.21 1023 10 16.0934 0.01 0.254
3:50 am 03:50 Cloudy 37 2.6 34 1 89 89 N 5 7 30.21 1023 10 16.0934 0.01 0.254
4:15 am 04:15 Cloudy 37 3 33 0.6 84 84 N 9 15 30.24 1024 10 16.0934 0 0
4:35 am 04:35 Cloudy 36 2.4 29 -1.7 75 75 N 16 26 30.24 1024 10 16.0934 0 0
4:55 am 04:55 Mostly Cloudy 35 1.8 29 -1.6 78 78 N 14 22 30.27 1025 10 16.0934 0 0
5:15 am 05:15 Mostly Cloudy 35 1.5 28 -2 78 78 N 15 24 30.27 1025 10 16.0934 0 0
5:35 am 05:35 Mostly Cloudy 33 0.8 27 -2.7 78 78 N 13 20 30.3 1026 10 16.0934 0 0
5:55 am 05:55 Partly Cloudy 33 0.6 27 -2.6 79 79 N 14 22 30.3 1026 10 16.0934 0 0
6:15 am 06:15 Clear 33 0.6 26 -3.5 74 74 N 14 22 30.3 1026 10 16.0934 0 0
6:35 am 06:35 Partly Cloudy 32 0.2 26 -3.2 78 78 N 9 15 30.33 1027 10 16.0934 0 0
6:55 am 06:55 Clear 32 0 26 -3.1 80 80 N 9 15 30.33 1027 10 16.0934 0 0
7:15 am 07:15 Clear 32 0 24 -4.2 74 74 N 10 17 30.33 1027 10 16.0934 0 0
7:35 am 07:35 Sunny 31 -0.3 24 -4.5 74 74 N 10 17 30.36 1028 10 16.0934 0 0
7:55 am 07:55 Sunny 31 -0.4 24 -4.6 74 74 N 12 19 30.36 1028 10 16.0934 0 0
8:15 am 08:15 Sunny 31 -0.3 23 -4.8 72 72 N 14 22 30.36 1028 10 16.0934 0 0
8:35 am 08:35 Sunny 31 -0.3 24 -4.6 73 73 NNW 13 20 30.36 1028 10 16.0934 0 0
8:55 am 08:55 Sunny 31 -0.5 23 -4.9 72 72 NNW 17 28 30.39 1029 10 16.0934 0 0
9:15 am 09:15 Sunny 31 -0.3 23 -5.1 70 70 N 16 26 30.39 1029 10 16.0934 0 0
9:35 am 09:35 Sunny 32 0 23 -4.8 70 70 N 15 24 30.39 1029 10 16.0934 0 0
9:55 am 09:55 Sunny 32 0.1 24 -4.5 72 72 NNW 15 24 30.39 1029 10 16.0934 0 0
10:15 am 10:15 Sunny 33 0.5 24 -4.5 69 69 N 18 30 30.42 1030 10 16.0934 0 0
10:35 am 10:35 Sunny 34 1.1 25 -3.8 70 70 N 18 30 30.42 1030 10 16.0934 0 0
10:55 am 10:55 Sunny 35 1.7 26 -3.4 69 69 N 17 28 30.42 1030 10 16.0934 0 0
11:15 am 11:15 Sunny 36 2.2 26 -3.6 66 66 N 20 31 30.42 1030 10 16.0934 0 0
11:35 am 11:35 Sunny 37 2.7 25 -4.1 61 61 N 17 28 30.39 1029 10 16.0934 0 0
11:55 am 11:55 Sunny 38 3.3 25 -4.1 59 59 NNW 15 24 30.39 1029 10 16.0934 0 0
12:15 pm 12:15 Sunny 39 3.7 24 -4.4 56 56 N 17 28 30.42 1030 10 16.0934 0 0
12:35 pm 12:35 Sunny 40 4.5 24 -4.6 52 52 N 16 26 30.39 1029 10 16.0934 0 0
12:55 pm 12:55 Sunny 42 5.3 23 -5.1 47 47 NNW 17 28 30.39 1029 10 16.0934 0 0
1:15 pm 13:15 Sunny 42 5.7 23 -4.9 47 47 NNW 13 20 30.36 1028 10 16.0934 0 0
1:35 pm 13:35 Sunny 43 6.2 23 -5.2 44 44 N 14 22 30.36 1028 10 16.0934 0 0
1:55 pm 13:55 Sunny 44 6.8 21 -6.3 39 39 NNW 16 26 30.36 1028 10 16.0934 0 0
2:15 pm 14:15 Sunny 45 7.3 22 -5.7 39 39 NNW 10 17 30.36 1028 10 16.0934 0 0
2:35 pm 14:35 Sunny 47 8.2 21 -6.3 35 35 NNW 9 15 30.36 1028 10 16.0934 0 0
2:55 pm 14:55 Sunny 47 8.6 19 -7.4 32 32 NNW 13 20 30.33 1027 10 16.0934 0 0
3:15 pm 15:15 Sunny 48 8.8 18 -7.8 30 30 NNW 13 20 30.33 1027 10 16.0934 0 0
3:35 pm 15:35 Sunny 49 9.2 17 -8.1 29 29 N 9 15 30.3 1026 10 16.0934 0 0
3:55 pm 15:55 Sunny 49 9.6 18 -7.8 29 29 NNW 9 15 30.3 1026 10 16.0934 0 0
4:15 pm 16:15 Sunny 49 9.7 15 -9.2 26 26 NW 10 17 30.3 1026 10 16.0934 0 0
4:35 pm 16:35 Sunny 50 10 15 -9.2 25 25 NNW 8 13 30.3 1026 10 16.0934 0 0
4:55 pm 16:55 Sunny 50 10 15 -9.7 24 24 NNW 10 17 30.3 1026 10 16.0934 0 0
5:15 pm 17:15 Sunny 50 10.1 14 -10.2 23 23 NW 9 15 30.3 1026 10 16.0934 0 0
5:35 pm 17:35 Sunny 51 10.5 14 -10.1 23 23 WNW 3 6 30.3 1026 10 16.0934 0 0
5:55 pm 17:55 Sunny 51 10.3 12 -10.9 21 21 WNW 6 9 30.3 1026 10 16.0934 0 0
6:15 pm 18:15 Sunny 51 10.4 13 -10.3 22 22 WNW 8 13 30.3 1026 10 16.0934 0 0
6:35 pm 18:35 Sunny 51 10.4 14 -10.1 23 23 NNW 8 13 30.27 1025 10 16.0934 0 0
6:55 pm 18:55 Sunny 50 10.1 14 -10.1 23 23 WNW 6 9 30.3 1026 10 16.0934 0 0
7:15 pm 19:15 Sunny 49 9.6 14 -10 24 24 Calm 30.3 1026 10 16.0934 0 0
7:35 pm 19:35 Sunny 49 9.3 14 -9.8 25 25 Calm 30.27 1025 10 16.0934 0 0
7:55 pm 19:55 Sunny 48 8.7 15 -9.3 27 27 WSW 3 6 30.27 1025 10 16.0934 0 0
8:15 pm 20:15 Clear 46 7.8 17 -8.2 32 32 SW 3 6 30.3 1026 10 16.0934 0 0
8:35 pm 20:35 Clear 44 6.4 21 -6.2 40 40 SSW 3 6 30.33 1027 10 16.0934 0 0
8:55 pm 20:55 Clear 42 5.7 19 -7 40 40 SSW 6 9 30.33 1027 10 16.0934 0 0
9:15 pm 21:15 Clear 40 4.5 20 -6.5 45 45 SSW 7 11 30.36 1028 10 16.0934 0 0
9:35 pm 21:35 Clear 40 4.5 21 -6 47 47 SSW 7 11 30.36 1028 10 16.0934 0 0
9:55 pm 21:55 Clear 37 2.8 21 -5.9 53 53 S 3 6 30.36 1028 10 16.0934 0 0
10:15 pm 22:15 Clear 37 2.7 22 -5.8 54 54 SSW 8 13 30.36 1028 10 16.0934 0 0
10:35 pm 22:35 Clear 37 2.6 23 -5.2 57 57 SSW 6 9 30.36 1028 10 16.0934 0 0
10:55 pm 22:55 Clear 37 2.5 23 -5 58 58 SSW 7 11 30.36 1028 10 16.0934 0 0
11:15 pm 23:15 Clear 37 3 23 -5.2 55 55 SSW 7 11 30.36 1028 10 16.0934 0 0
11:35 pm 23:35 Clear 36 2.1 23 -5 60 60 SSW 6 9 30.39 1029 10 16.0934 0 0
11:55 pm 23:55 Clear 35 1.5 24 -4.7 64 64 SSW 3 6 30.39 1029 10 16.0934 0 0

Powered by AerisWeather